�搅�E���B���j�^�v������
Date,Time,�搅(cps),���B(cps),���J
2024/05/20,00:00,6.7,4.2,�L
2024/05/20,00:10,6.6,4.3,�L
2024/05/20,00:20,6.6,4.3,�L
2024/05/20,00:30,6.8,4.3,�L
2024/05/20,00:40,6.6,4.3,�L
2024/05/20,00:50,6.8,4.3,�L
2024/05/20,01:00,6.5,4.1,�L
2024/05/20,01:10,6.5,4.3,�L
2024/05/20,01:20,6.9,4.3,�L
2024/05/20,01:30,6.8,4.3,�L
2024/05/20,01:40,6.7,4.4,�L
2024/05/20,01:50,6.8,4.3,�L
2024/05/20,02:00,7.0,4.2,�L
2024/05/20,02:10,6.7,4.4,�L
2024/05/20,02:20,7.0,4.3,�L
2024/05/20,02:30,6.7,4.3,�L
2024/05/20,02:40,6.7,4.3,�L
2024/05/20,02:50,6.7,4.2,�L
2024/05/20,03:00,6.6,4.4,�L
2024/05/20,03:10,6.7,4.4,�L
2024/05/20,03:20,6.5,4.3,�L
2024/05/20,03:30,6.7,4.3,�L
2024/05/20,03:40,6.6,4.4,�L
2024/05/20,03:50,6.7,4.3,�L
2024/05/20,04:00,6.7,4.4,�L
2024/05/20,04:10,7.0,4.2,�L
2024/05/20,04:20,6.9,4.4,�L
2024/05/20,04:30,6.8,4.4,�L
2024/05/20,04:40,6.8,4.4,�L
2024/05/20,04:50,6.8,4.2,�L
2024/05/20,05:00,6.7,4.4,�L
2024/05/20,05:10,6.9,4.5,�L
2024/05/20,05:20,6.8,4.4,�L
2024/05/20,05:30,6.9,4.1,�L
2024/05/20,05:40,6.7,4.4,�L
2024/05/20,05:50,6.9,4.4,�L
2024/05/20,06:00,6.7,4.4,�L
2024/05/20,06:10,6.8,4.4,��
2024/05/20,06:20,6.7,4.3,��
2024/05/20,06:30,6.8,4.4,��
2024/05/20,06:40,6.7,4.4,��
2024/05/20,06:50,6.8,4.4,�L
2024/05/20,07:00,6.8,4.4,�L
2024/05/20,07:10,6.8,4.3,�L
2024/05/20,07:20,6.8,4.3,��
2024/05/20,07:30,6.7,4.3,��
2024/05/20,07:40,6.6,4.3,��
2024/05/20,07:50,6.7,4.3,�L
2024/05/20,08:00,6.8,4.3,�L
2024/05/20,08:10,6.9,4.3,�L
2024/05/20,08:20,6.9,4.3,�L
2024/05/20,08:30,6.9,4.3,�L
2024/05/20,08:40,6.9,4.2,�L
2024/05/20,08:50,6.9,4.4,�L
2024/05/20,09:00,6.9,4.4,�L
2024/05/20,09:10,6.9,4.4,�L
2024/05/20,09:20,7.1,4.4,�L
2024/05/20,09:30,7.1,4.5,�L
2024/05/20,09:40,7.1,4.4,�L
2024/05/20,09:50,6.9,4.6,�L
2024/05/20,10:00,7.1,4.6,�L
2024/05/20,10:10,7.1,4.5,�L
2024/05/20,10:20,7.0,4.6,�L
2024/05/20,10:30,7.1,4.6,�L
2024/05/20,10:40,7.2,4.3,�L
2024/05/20,10:50,7.1,4.6,�L
2024/05/20,11:00,7.2,4.6,�L
2024/05/20,11:10,7.2,4.5,�L
2024/05/20,11:20,7.2,4.5,�L
2024/05/20,11:30,7.1,4.6,�L
2024/05/20,11:40,7.2,4.5,�L
2024/05/20,11:50,7.1,4.5,��
2024/05/20,12:00,6.9,4.4,��
2024/05/20,12:10,6.8,4.6,��
2024/05/20,12:20,6.9,4.6,��
2024/05/20,12:30,6.8,4.5,��
2024/05/20,12:40,6.7,4.4,��
2024/05/20,12:50,6.9,4.4,��
2024/05/20,13:00,6.9,4.3,��
2024/05/20,13:10,6.9,4.3,��
2024/05/20,13:20,6.8,4.4,��
2024/05/20,13:30,6.8,4.4,��
2024/05/20,13:40,6.8,4.3,��
2024/05/20,13:50,6.7,4.2,��
2024/05/20,14:00,6.9,4.3,��
2024/05/20,14:10,6.8,4.2,��
2024/05/20,14:20,6.8,4.3,��
2024/05/20,14:30,6.8,4.3,��
2024/05/20,14:40,6.8,4.3,��
2024/05/20,14:50,6.7,4.3,��
2024/05/20,15:00,6.8,4.3,��
2024/05/20,15:10,6.7,4.3,��
2024/05/20,15:20,6.9,4.2,��
2024/05/20,15:30,6.9,4.2,��
2024/05/20,15:40,6.7,4.4,��
2024/05/20,15:50,6.6,4.5,��
2024/05/20,16:00,6.9,4.3,��
2024/05/20,16:10,6.9,4.3,��
2024/05/20,16:20,6.6,4.2,��
2024/05/20,16:30,6.8,4.2,��
2024/05/20,16:40,6.6,4.3,��
2024/05/20,16:50,6.8,4.2,��
2024/05/20,17:00,6.8,4.3,��
2024/05/20,17:10,6.7,4.2,��
2024/05/20,17:20,6.8,4.3,��
2024/05/20,17:30,6.8,4.3,��
2024/05/20,17:40,6.7,4.3,��
2024/05/20,17:50,6.8,4.2,��
2024/05/20,18:00,6.7,4.2,��
2024/05/20,18:10,6.7,4.4,��
2024/05/20,18:20,6.8,4.3,��
2024/05/20,18:30,6.8,4.4,��
2024/05/20,18:40,6.8,4.3,��
2024/05/20,18:50,6.7,4.2,��
2024/05/20,19:00,6.9,4.3,��
2024/05/20,19:10,6.9,4.5,��
2024/05/20,19:20,6.9,4.3,��
2024/05/20,19:30,6.7,4.3,��
2024/05/20,19:40,6.7,4.3,��
2024/05/20,19:50,6.7,4.3,��
2024/05/20,20:00,6.8,4.3,��
2024/05/20,20:10,6.8,4.4,��
2024/05/20,20:20,6.7,4.4,��
2024/05/20,20:30,6.9,4.4,��
2024/05/20,20:40,6.8,4.2,��
2024/05/20,20:50,6.8,4.4,��
2024/05/20,21:00,6.8,4.3,��
2024/05/20,21:10,6.6,4.4,��
2024/05/20,21:20,6.6,4.3,��
2024/05/20,21:30,6.7,4.4,��
2024/05/20,21:40,6.8,4.4,��
2024/05/20,21:50,6.8,4.3,��
2024/05/20,22:00,6.7,4.3,��
2024/05/20,22:10,6.8,4.3,��
2024/05/20,22:20,6.8,4.3,��
2024/05/20,22:30,6.8,4.4,��
2024/05/20,22:40,6.7,4.5,��
2024/05/20,22:50,6.6,4.4,��
2024/05/20,23:00,6.7,4.2,��
2024/05/20,23:10,6.7,4.3,��
2024/05/20,23:20,6.8,4.3,��
2024/05/20,23:30,6.8,4.4,��
2024/05/20,23:40,6.6,4.3,��
2024/05/20,23:50,6.7,4.3,��
